Time,TemperatureF,DewpointF,PressureIn,WindDirection,WindDirectionDegrees,WindSpeedMPH,WindSpeedGustMPH,Humidity,HourlyPrecipIn,Conditions,Clouds,dailyrainin,SoftwareType,DateUTC
2013-03-18 00:04:00,45.3,6.6,29.73,North,9,0.0,0.0,20,0.00,,,0.00,meteobridge,2013-03-18 06:04:00,
2013-03-18 00:09:00,45.9,4.6,29.73,North,9,0.0,0.0,18,0.00,,,0.00,meteobridge,2013-03-18 06:09:00,
2013-03-18 00:14:00,45.7,5.7,29.74,North,9,0.0,0.0,19,0.00,,,0.00,meteobridge,2013-03-18 06:14:00,
2013-03-18 00:19:00,45.7,4.6,29.74,North,0,0.0,4.9,18,0.00,,,0.00,meteobridge,2013-03-18 06:19:00,
2013-03-18 00:24:00,46.2,5.0,29.74,North,0,0.0,0.0,18,0.00,,,0.00,meteobridge,2013-03-18 06:24:00,
2013-03-18 00:29:00,45.1,6.4,29.75,North,0,0.0,0.0,20,0.00,,,0.00,meteobridge,2013-03-18 06:29:00,
2013-03-18 00:34:00,44.4,5.9,29.75,North,0,0.9,2.0,20,0.00,,,0.00,meteobridge,2013-03-18 06:34:00,
2013-03-18 00:39:00,44.1,6.6,29.75,North,5,0.0,0.0,21,0.00,,,0.00,meteobridge,2013-03-18 06:39:00,
2013-03-18 00:44:00,43.9,5.4,29.75,North,5,0.0,0.0,20,0.00,,,0.00,meteobridge,2013-03-18 06:44:00,
2013-03-18 00:49:00,43.5,6.1,29.75,North,5,0.0,0.9,21,0.00,,,0.00,meteobridge,2013-03-18 06:49:00,
2013-03-18 00:55:00,43.7,4.1,29.75,ESE,120,0.9,0.9,19,0.00,,,0.00,meteobridge,2013-03-18 06:55:00,
2013-03-18 01:00:00,44.1,5.5,29.76,ESE,120,0.0,0.9,20,0.00,,,0.00,meteobridge,2013-03-18 07:00:00,
2013-03-18 01:05:00,44.8,5.0,29.75,ESE,120,0.0,0.0,19,0.00,,,0.00,meteobridge,2013-03-18 07:05:00,
2013-03-18 01:10:00,44.8,6.1,29.75,ESE,120,0.0,0.9,20,0.00,,,0.00,meteobridge,2013-03-18 07:10:00,
2013-03-18 01:15:00,44.2,5.7,29.76,ESE,123,0.0,0.9,20,0.00,,,0.00,meteobridge,2013-03-18 07:15:00,
2013-03-18 01:20:00,43.5,6.1,29.77,ESE,123,0.0,2.0,21,0.00,,,0.00,meteobridge,2013-03-18 07:20:00,
2013-03-18 01:25:00,43.5,6.1,29.77,ESE,123,0.0,2.0,21,0.00,,,0.00,meteobridge,2013-03-18 07:25:00,
2013-03-18 01:30:00,44.4,5.9,29.78,ESE,123,0.0,2.0,20,0.00,,,0.00,meteobridge,2013-03-18 07:30:00,
2013-03-18 01:35:00,45.3,5.5,29.78,ESE,123,0.0,0.9,19,0.00,,,0.00,meteobridge,2013-03-18 07:35:00,
2013-03-18 01:40:00,45.5,6.8,29.78,West,266,0.9,4.9,20,0.00,,,0.00,meteobridge,2013-03-18 07:40:00,
2013-03-18 01:45:00,46.9,6.8,29.78,WSW,245,0.0,4.0,19,0.00,,,0.00,meteobridge,2013-03-18 07:45:00,
2013-03-18 01:50:00,47.5,7.3,29.78,West,272,2.9,4.9,19,0.00,,,0.00,meteobridge,2013-03-18 07:50:00,
2013-03-18 01:55:00,48.7,7.2,29.79,West,275,0.9,4.0,18,0.00,,,0.00,meteobridge,2013-03-18 07:55:00,
2013-03-18 02:00:00,48.7,5.9,29.79,WSW,238,0.0,2.9,17,0.00,,,0.00,meteobridge,2013-03-18 08:00:00,
2013-03-18 02:05:00,48.6,5.7,29.79,West,268,0.0,0.9,17,0.00,,,0.00,meteobridge,2013-03-18 08:05:00,
2013-03-18 02:11:00,47.8,5.2,29.79,West,268,0.0,0.0,17,0.00,,,0.00,meteobridge,2013-03-18 08:11:00,
2013-03-18 02:16:00,47.1,4.5,29.80,West,268,0.0,0.0,17,0.00,,,0.00,meteobridge,2013-03-18 08:16:00,
2013-03-18 02:22:00,46.8,5.5,29.80,West,268,0.0,0.0,18,0.00,,,0.00,meteobridge,2013-03-18 08:22:00,
2013-03-18 02:27:00,46.0,6.1,29.80,West,268,0.0,0.0,19,0.00,,,0.00,meteobridge,2013-03-18 08:27:00,
2013-03-18 02:32:00,45.7,5.7,29.80,West,268,0.0,0.0,19,0.00,,,0.00,meteobridge,2013-03-18 08:32:00,
2013-03-18 02:37:00,44.8,7.2,29.80,West,268,0.0,0.0,21,0.00,,,0.00,meteobridge,2013-03-18 08:37:00,
2013-03-18 02:42:00,44.1,7.7,29.80,West,268,0.0,0.0,22,0.00,,,0.00,meteobridge,2013-03-18 08:42:00,
2013-03-18 02:48:00,43.3,8.1,29.80,West,268,0.0,0.0,23,0.00,,,0.00,meteobridge,2013-03-18 08:48:00,
2013-03-18 02:53:00,42.8,7.5,29.80,West,268,0.0,0.0,23,0.00,,,0.00,meteobridge,2013-03-18 08:53:00,
2013-03-18 02:58:00,42.1,7.9,29.80,SSW,194,0.0,2.0,24,0.00,,,0.00,meteobridge,2013-03-18 08:58:00,
2013-03-18 03:03:00,41.4,8.2,29.81,SSW,194,0.0,0.9,25,0.00,,,0.00,meteobridge,2013-03-18 09:03:00,
2013-03-18 03:08:00,41.4,8.2,29.81,SSW,194,0.9,0.9,25,0.00,,,0.00,meteobridge,2013-03-18 09:08:00,
2013-03-18 03:13:00,41.4,8.2,29.81,SSW,194,0.0,2.0,25,0.00,,,0.00,meteobridge,2013-03-18 09:13:00,
2013-03-18 03:18:00,41.4,8.2,29.81,SSW,194,0.0,0.0,25,0.00,,,0.00,meteobridge,2013-03-18 09:18:00,
2013-03-18 03:24:00,41.4,9.0,29.81,SSW,194,0.0,0.9,26,0.00,,,0.00,meteobridge,2013-03-18 09:24:00,
2013-03-18 03:29:00,41.4,9.0,29.81,SSW,194,0.0,0.0,26,0.00,,,0.00,meteobridge,2013-03-18 09:29:00,
2013-03-18 03:34:00,41.4,9.0,29.81,SSW,194,0.0,0.0,26,0.00,,,0.00,meteobridge,2013-03-18 09:34:00,
2013-03-18 03:39:00,41.7,9.3,29.80,SSW,194,0.0,0.9,26,0.00,,,0.00,meteobridge,2013-03-18 09:39:00,
2013-03-18 03:44:00,41.7,9.3,29.81,SSW,194,0.0,0.0,26,0.00,,,0.00,meteobridge,2013-03-18 09:44:00,
2013-03-18 03:49:00,42.3,9.0,29.81,SSW,194,0.0,0.0,25,0.00,,,0.00,meteobridge,2013-03-18 09:49:00,
2013-03-18 03:55:00,42.6,9.3,29.81,SSW,194,0.0,0.0,25,0.00,,,0.00,meteobridge,2013-03-18 09:55:00,
2013-03-18 04:00:00,42.4,10.0,29.81,SSW,194,0.0,0.0,26,0.00,,,0.00,meteobridge,2013-03-18 10:00:00,
2013-03-18 04:05:00,41.5,10.0,29.81,SSW,194,0.0,0.0,27,0.00,,,0.00,meteobridge,2013-03-18 10:05:00,
2013-03-18 04:10:00,40.6,10.0,29.81,SSW,194,0.0,0.9,28,0.00,,,0.00,meteobridge,2013-03-18 10:10:00,
2013-03-18 04:16:00,39.6,10.8,29.81,SSW,194,0.0,0.0,30,0.00,,,0.00,meteobridge,2013-03-18 10:16:00,
2013-03-18 04:21:00,39.4,9.7,29.81,SSW,194,0.0,0.9,29,0.00,,,0.00,meteobridge,2013-03-18 10:21:00,
2013-03-18 04:26:00,39.0,10.2,29.81,SSW,194,0.9,0.9,30,0.00,,,0.00,meteobridge,2013-03-18 10:26:00,
2013-03-18 04:31:00,38.8,10.0,29.81,SSW,194,0.0,0.9,30,0.00,,,0.00,meteobridge,2013-03-18 10:31:00,
2013-03-18 04:37:00,38.8,10.0,29.81,SSW,194,0.0,0.0,30,0.00,,,0.00,meteobridge,2013-03-18 10:37:00,
2013-03-18 04:42:00,39.4,10.6,29.81,SSW,194,0.0,0.0,30,0.00,,,0.00,meteobridge,2013-03-18 10:42:00,
2013-03-18 04:47:00,39.0,10.2,29.81,SSE,159,0.9,2.0,30,0.00,,,0.00,meteobridge,2013-03-18 10:47:00,
2013-03-18 04:52:00,39.2,10.4,29.81,ESE,102,0.9,2.0,30,0.00,,,0.00,meteobridge,2013-03-18 10:52:00,
2013-03-18 04:57:00,39.6,9.9,29.81,ESE,102,0.9,2.9,29,0.00,,,0.00,meteobridge,2013-03-18 10:57:00,
2013-03-18 05:02:00,39.0,10.2,29.81,SSE,157,0.0,2.0,30,0.00,,,0.00,meteobridge,2013-03-18 11:02:00,
2013-03-18 05:07:00,38.8,10.8,29.81,SSE,157,0.9,2.0,31,0.00,,,0.00,meteobridge,2013-03-18 11:07:00,
2013-03-18 05:12:00,39.0,10.2,29.82,SSE,155,0.0,0.9,30,0.00,,,0.00,meteobridge,2013-03-18 11:12:00,
2013-03-18 05:17:00,39.0,10.2,29.82,SSE,155,0.0,0.0,30,0.00,,,0.00,meteobridge,2013-03-18 11:17:00,
2013-03-18 05:23:00,38.8,10.0,29.82,SSE,155,0.9,0.9,30,0.00,,,0.00,meteobridge,2013-03-18 11:23:00,
2013-03-18 05:28:00,38.7,10.6,29.82,SSE,155,0.9,0.9,31,0.00,,,0.00,meteobridge,2013-03-18 11:28:00,
2013-03-18 05:33:00,38.3,10.2,29.82,SSE,155,0.0,0.0,31,0.00,,,0.00,meteobridge,2013-03-18 11:33:00,
2013-03-18 05:38:00,38.1,10.2,29.82,SSE,155,0.9,2.0,31,0.00,,,0.00,meteobridge,2013-03-18 11:38:00,
2013-03-18 05:43:00,38.1,10.2,29.82,SSE,155,0.0,0.9,31,0.00,,,0.00,meteobridge,2013-03-18 11:43:00,
2013-03-18 05:48:00,37.9,10.8,29.82,SSE,155,2.0,2.0,32,0.00,,,0.00,meteobridge,2013-03-18 11:48:00,
2013-03-18 05:53:00,37.4,10.9,29.82,SSE,155,0.0,0.0,33,0.00,,,0.00,meteobridge,2013-03-18 11:53:00,
2013-03-18 05:58:00,37.6,10.4,29.82,SSE,155,0.0,0.9,32,0.00,,,0.00,meteobridge,2013-03-18 11:58:00,
2013-03-18 06:03:00,38.1,10.2,29.82,SE,137,0.0,0.9,31,0.00,,,0.00,meteobridge,2013-03-18 12:03:00,
2013-03-18 06:08:00,38.7,9.9,29.82,ESE,103,0.0,0.9,30,0.00,,,0.00,meteobridge,2013-03-18 12:08:00,
2013-03-18 06:13:00,39.0,10.2,29.82,SE,137,0.9,2.0,30,0.00,,,0.00,meteobridge,2013-03-18 12:13:00,
2013-03-18 06:18:00,39.0,10.2,29.82,East,94,0.0,2.0,30,0.00,,,0.00,meteobridge,2013-03-18 12:18:00,
2013-03-18 06:24:00,39.0,10.2,29.82,East,90,0.9,2.0,30,0.00,,,0.00,meteobridge,2013-03-18 12:24:00,
2013-03-18 06:29:00,38.5,10.4,29.83,ESE,121,0.0,2.0,31,0.00,,,0.00,meteobridge,2013-03-18 12:29:00,
2013-03-18 06:34:00,37.2,10.8,29.84,ESE,121,0.0,0.9,33,0.00,,,0.00,meteobridge,2013-03-18 12:34:00,
2013-03-18 06:39:00,36.9,11.1,29.84,ESE,121,0.0,0.0,34,0.00,,,0.00,meteobridge,2013-03-18 12:39:00,
2013-03-18 06:44:00,37.0,11.3,29.84,ESE,121,2.0,2.9,34,0.00,,,0.00,meteobridge,2013-03-18 12:44:00,
2013-03-18 06:49:00,37.2,10.8,29.84,SE,128,0.0,0.9,33,0.00,,,0.00,meteobridge,2013-03-18 12:49:00,
2013-03-18 06:54:00,37.8,10.6,29.84,SE,128,0.0,0.9,32,0.00,,,0.00,meteobridge,2013-03-18 12:54:00,
2013-03-18 06:59:00,37.9,10.8,29.84,SE,128,0.0,0.9,32,0.00,,,0.00,meteobridge,2013-03-18 12:59:00,
2013-03-18 07:04:00,37.6,10.4,29.84,SE,128,0.9,0.9,32,0.00,,,0.00,meteobridge,2013-03-18 13:04:00,
2013-03-18 07:10:00,37.0,10.6,29.85,SE,128,0.0,0.0,33,0.00,,,0.00,meteobridge,2013-03-18 13:10:00,
2013-03-18 07:15:00,36.9,10.4,29.85,SE,128,2.0,2.0,33,0.00,,,0.00,meteobridge,2013-03-18 13:15:00,
2013-03-18 07:20:00,36.5,10.8,29.85,SE,128,0.9,0.9,34,0.00,,,0.00,meteobridge,2013-03-18 13:20:00,
2013-03-18 07:25:00,36.9,10.4,29.85,SE,128,0.0,0.9,33,0.00,,,0.00,meteobridge,2013-03-18 13:25:00,
2013-03-18 07:30:00,37.2,11.5,29.85,SE,128,0.9,0.9,34,0.00,,,0.00,meteobridge,2013-03-18 13:30:00,
2013-03-18 07:35:00,37.4,10.2,29.86,SE,128,0.0,0.9,32,0.00,,,0.00,meteobridge,2013-03-18 13:35:00,
2013-03-18 07:40:00,37.2,11.5,29.87,SE,128,0.0,0.0,34,0.00,,,0.00,meteobridge,2013-03-18 13:40:00,
2013-03-18 07:46:00,37.0,11.8,29.88,SE,128,0.0,0.0,35,0.00,,,0.00,meteobridge,2013-03-18 13:46:00,
2013-03-18 07:51:00,38.1,12.2,29.88,SE,128,0.0,0.0,34,0.00,,,0.00,meteobridge,2013-03-18 13:51:00,
2013-03-18 07:56:00,39.4,10.6,29.88,SE,135,0.9,2.9,30,0.00,,,0.00,meteobridge,2013-03-18 13:56:00,
2013-03-18 08:01:00,39.7,10.0,29.88,SE,135,0.9,2.0,29,0.00,,,0.00,meteobridge,2013-03-18 14:01:00,
2013-03-18 08:06:00,40.6,9.3,29.88,SE,135,0.9,2.0,27,0.00,,,0.00,meteobridge,2013-03-18 14:06:00,
2013-03-18 08:11:00,41.7,9.3,29.88,SE,140,2.0,2.9,26,0.00,,,0.00,meteobridge,2013-03-18 14:11:00,
2013-03-18 08:16:00,42.8,8.4,29.87,SE,144,0.0,2.9,24,0.00,,,0.00,meteobridge,2013-03-18 14:16:00,
2013-03-18 08:21:00,44.1,7.7,29.88,ESE,123,0.0,2.9,22,0.00,,,0.00,meteobridge,2013-03-18 14:21:00,
2013-03-18 08:27:00,45.0,7.3,29.88,ESE,116,0.0,2.9,21,0.00,,,0.00,meteobridge,2013-03-18 14:27:00,
2013-03-18 08:32:00,45.7,5.7,29.88,SE,141,2.9,2.9,19,0.00,,,0.00,meteobridge,2013-03-18 14:32:00,
2013-03-18 08:37:00,46.0,6.1,29.89,SE,141,0.0,0.9,19,0.00,,,0.00,meteobridge,2013-03-18 14:37:00,
2013-03-18 08:42:00,46.8,5.5,29.89,SE,144,2.9,4.0,18,0.00,,,0.00,meteobridge,2013-03-18 14:42:00,
2013-03-18 08:47:00,46.9,5.5,29.89,SSE,152,2.0,4.0,18,0.00,,,0.00,meteobridge,2013-03-18 14:47:00,
2013-03-18 08:52:00,47.7,5.0,29.89,SSE,149,0.9,2.0,17,0.00,,,0.00,meteobridge,2013-03-18 14:52:00,
2013-03-18 08:57:00,48.4,5.5,29.90,SE,130,0.0,2.0,17,0.00,,,0.00,meteobridge,2013-03-18 14:57:00,
2013-03-18 09:02:00,48.6,5.7,29.90,SSE,166,0.9,2.9,17,0.00,,,0.00,meteobridge,2013-03-18 15:02:00,
2013-03-18 09:07:00,49.5,5.2,29.90,SSE,166,0.0,0.0,16,0.00,,,0.00,meteobridge,2013-03-18 15:07:00,
2013-03-18 09:12:00,49.8,3.9,29.90,SSE,166,0.9,2.0,15,0.00,,,0.00,meteobridge,2013-03-18 15:12:00,
2013-03-18 09:17:00,50.2,4.3,29.90,SSE,154,2.0,2.0,15,0.00,,,0.00,meteobridge,2013-03-18 15:17:00,
2013-03-18 09:22:00,50.7,6.1,29.90,SSE,160,0.9,2.9,16,0.00,,,0.00,meteobridge,2013-03-18 15:22:00,
2013-03-18 09:27:00,50.5,5.9,29.90,South,186,0.0,0.0,16,0.00,,,0.00,meteobridge,2013-03-18 15:27:00,
2013-03-18 09:32:00,50.7,6.1,29.90,SSE,161,2.0,2.9,16,0.00,,,0.00,meteobridge,2013-03-18 15:32:00,
2013-03-18 09:37:00,51.4,6.8,29.90,SSE,168,2.9,4.0,16,0.00,,,0.00,meteobridge,2013-03-18 15:37:00,
2013-03-18 09:42:00,51.8,7.0,29.90,SSE,148,0.9,4.0,16,0.00,,,0.00,meteobridge,2013-03-18 15:42:00,
2013-03-18 09:47:00,51.6,6.8,29.90,ESE,115,2.0,4.9,16,0.00,,,0.00,meteobridge,2013-03-18 15:47:00,
2013-03-18 09:52:00,51.8,7.0,29.90,SW,218,0.0,2.0,16,0.00,,,0.00,meteobridge,2013-03-18 15:52:00,
2013-03-18 09:57:00,52.3,7.5,29.90,SW,225,2.9,6.0,16,0.00,,,0.00,meteobridge,2013-03-18 15:57:00,
2013-03-18 10:02:00,52.3,8.8,29.90,WSW,256,0.0,2.9,17,0.00,,,0.00,meteobridge,2013-03-18 16:02:00,
2013-03-18 10:08:00,52.9,7.9,29.90,SSW,192,2.0,4.0,16,0.00,,,0.00,meteobridge,2013-03-18 16:08:00,
2013-03-18 10:13:00,52.5,7.5,29.90,SSW,195,2.0,4.0,16,0.00,,,0.00,meteobridge,2013-03-18 16:13:00,
2013-03-18 10:18:00,53.6,8.4,29.90,SW,234,2.9,4.0,16,0.00,,,0.00,meteobridge,2013-03-18 16:18:00,
2013-03-18 10:23:00,53.8,8.6,29.89,South,174,0.9,4.0,16,0.00,,,0.00,meteobridge,2013-03-18 16:23:00,
2013-03-18 10:28:00,54.0,7.3,29.89,South,178,0.9,2.0,15,0.00,,,0.00,meteobridge,2013-03-18 16:28:00,
2013-03-18 10:33:00,54.1,7.5,29.89,SSE,157,0.9,4.9,15,0.00,,,0.00,meteobridge,2013-03-18 16:33:00,
2013-03-18 10:38:00,55.0,9.7,29.89,WSW,237,0.9,2.9,16,0.00,,,0.00,meteobridge,2013-03-18 16:38:00,
2013-03-18 10:43:00,55.9,9.0,29.89,SW,229,2.0,4.9,15,0.00,,,0.00,meteobridge,2013-03-18 16:43:00,
2013-03-18 10:48:00,55.0,8.2,29.90,SW,235,0.0,4.0,15,0.00,,,0.00,meteobridge,2013-03-18 16:48:00,
2013-03-18 10:53:00,55.9,9.0,29.89,SW,223,0.0,2.9,15,0.00,,,0.00,meteobridge,2013-03-18 16:53:00,
2013-03-18 10:58:00,56.7,8.1,29.89,SW,233,2.0,4.0,14,0.00,,,0.00,meteobridge,2013-03-18 16:58:00,
2013-03-18 11:03:00,56.1,9.1,29.90,West,263,2.0,6.0,15,0.00,,,0.00,meteobridge,2013-03-18 17:03:00,
2013-03-18 11:08:00,56.5,9.3,29.90,WSW,244,4.9,6.0,15,0.00,,,0.00,meteobridge,2013-03-18 17:08:00,
2013-03-18 11:13:00,56.3,9.1,29.90,NW,306,2.9,4.9,15,0.00,,,0.00,meteobridge,2013-03-18 17:13:00,
2013-03-18 11:18:00,57.6,10.2,29.90,WSW,240,0.0,2.9,15,0.00,,,0.00,meteobridge,2013-03-18 17:18:00,
2013-03-18 11:23:00,57.2,9.9,29.89,SSW,196,2.9,4.0,15,0.00,,,-18.81,meteobridge,2013-03-18 17:23:00,
2013-03-18 11:28:00,58.5,9.5,29.89,SW,233,0.9,6.0,14,0.00,,,0.00,meteobridge,2013-03-18 17:28:00,
2013-03-18 11:33:00,58.5,7.7,29.89,WSW,255,2.0,6.0,13,0.00,,,0.00,meteobridge,2013-03-18 17:33:00,
2013-03-18 11:39:00,58.8,6.3,29.89,WNW,292,0.9,4.9,12,0.00,,,0.00,meteobridge,2013-03-18 17:39:00,
2013-03-18 11:44:00,58.8,6.3,29.89,West,270,2.0,4.0,12,0.00,,,0.00,meteobridge,2013-03-18 17:44:00,
2013-03-18 11:49:00,59.7,7.0,29.89,NW,311,0.0,4.0,12,0.00,,,0.00,meteobridge,2013-03-18 17:49:00,
2013-03-18 11:54:00,60.4,7.5,29.89,SW,221,2.0,4.0,12,0.00,,,0.00,meteobridge,2013-03-18 17:54:00,
2013-03-18 11:59:00,59.4,4.8,29.89,SSW,195,2.9,4.0,11,0.00,,,0.00,meteobridge,2013-03-18 17:59:00,
2013-03-18 12:04:00,59.7,8.8,29.89,North,355,0.9,4.9,13,0.00,,,0.00,meteobridge,2013-03-18 18:04:00,
2013-03-18 12:09:00,60.8,7.9,29.89,WNW,294,4.0,4.0,12,0.00,,,0.00,meteobridge,2013-03-18 18:09:00,
2013-03-18 12:14:00,61.0,6.1,29.88,WNW,302,0.9,2.9,11,0.00,,,0.00,meteobridge,2013-03-18 18:14:00,
2013-03-18 12:19:00,61.5,4.5,29.88,North,5,2.9,8.1,10,0.00,,,0.00,meteobridge,2013-03-18 18:19:00,
2013-03-18 12:24:00,61.2,4.1,29.88,North,355,0.9,4.9,10,0.00,,,0.00,meteobridge,2013-03-18 18:24:00,
2013-03-18 12:29:00,62.2,5.0,29.88,NNW,344,2.0,6.9,10,0.00,,,0.00,meteobridge,2013-03-18 18:29:00,
2013-03-18 12:34:00,61.5,4.5,29.88,NE,35,2.0,2.9,10,0.00,,,0.00,meteobridge,2013-03-18 18:34:00,
2013-03-18 12:39:00,62.4,5.2,29.87,NNE,16,6.0,6.0,10,0.00,,,0.00,meteobridge,2013-03-18 18:39:00,
2013-03-18 12:44:00,62.1,4.8,29.87,NNW,336,4.0,6.0,10,0.00,,,0.00,meteobridge,2013-03-18 18:44:00,
2013-03-18 12:49:00,62.4,5.2,29.87,North,0,0.9,2.9,10,0.00,,,0.00,meteobridge,2013-03-18 18:49:00,
2013-03-18 12:54:00,63.0,5.5,29.87,NW,307,2.0,4.9,10,0.00,,,0.00,meteobridge,2013-03-18 18:54:00,
2013-03-18 12:59:00,62.2,5.0,29.86,NNW,338,2.0,4.0,10,0.00,,,0.00,meteobridge,2013-03-18 18:59:00,
2013-03-18 13:04:00,62.4,5.2,29.86,ENE,71,2.0,6.9,10,0.00,,,0.00,meteobridge,2013-03-18 19:04:00,
2013-03-18 13:09:00,62.2,2.7,29.85,ENE,65,2.9,6.9,9,0.00,,,0.00,meteobridge,2013-03-18 19:09:00,
2013-03-18 13:14:00,62.8,5.4,29.85,North,355,2.0,2.0,10,0.00,,,0.00,meteobridge,2013-03-18 19:14:00,
2013-03-18 13:19:00,63.9,3.9,29.84,SSW,192,2.0,4.0,9,0.00,,,0.00,meteobridge,2013-03-18 19:19:00,
2013-03-18 13:24:00,65.1,7.2,29.84,SW,219,0.9,2.9,10,0.00,,,0.00,meteobridge,2013-03-18 19:24:00,
2013-03-18 13:29:00,63.9,3.9,29.84,WSW,252,2.0,4.0,9,0.00,,,0.00,meteobridge,2013-03-18 19:29:00,
2013-03-18 13:35:00,64.4,4.3,29.83,SSE,157,0.0,2.9,9,0.00,,,0.00,meteobridge,2013-03-18 19:35:00,
2013-03-18 13:40:00,66.0,5.5,29.83,NNE,24,2.9,8.1,9,0.00,,,0.00,meteobridge,2013-03-18 19:40:00,
2013-03-18 13:45:00,66.4,3.2,29.83,East,84,2.0,4.0,8,0.00,,,0.00,meteobridge,2013-03-18 19:45:00,
2013-03-18 13:50:00,65.7,2.7,29.82,NNE,17,2.0,2.9,8,0.00,,,0.00,meteobridge,2013-03-18 19:50:00,
2013-03-18 13:55:00,65.8,7.7,29.82,WSW,242,0.9,4.0,10,0.00,,,0.00,meteobridge,2013-03-18 19:55:00,
2013-03-18 14:00:00,65.8,5.4,29.82,West,265,2.0,2.9,9,0.00,,,0.00,meteobridge,2013-03-18 20:00:00,
2013-03-18 14:05:00,65.8,5.4,29.81,South,190,4.9,4.9,9,0.00,,,0.00,meteobridge,2013-03-18 20:05:00,
2013-03-18 14:10:00,67.5,1.2,29.81,NW,308,4.9,10.1,7,0.00,,,0.00,meteobridge,2013-03-18 20:10:00,
2013-03-18 14:15:00,66.7,3.6,29.81,WNW,299,2.0,6.9,8,0.00,,,0.00,meteobridge,2013-03-18 20:15:00,
2013-03-18 14:20:00,67.8,4.3,29.80,NW,305,2.9,4.9,8,0.00,,,0.00,meteobridge,2013-03-18 20:20:00,
2013-03-18 14:25:00,68.0,1.6,29.80,NW,311,4.0,6.9,7,0.00,,,0.00,meteobridge,2013-03-18 20:25:00,
2013-03-18 14:30:00,68.0,1.6,29.80,NNW,345,4.0,6.0,7,0.00,,,0.00,meteobridge,2013-03-18 20:30:00,
2013-03-18 14:35:00,68.2,1.8,29.80,NW,305,4.9,8.9,7,0.00,,,0.00,meteobridge,2013-03-18 20:35:00,
2013-03-18 14:40:00,68.2,4.6,29.80,NNW,342,4.9,8.1,8,0.00,,,0.00,meteobridge,2013-03-18 20:40:00,
2013-03-18 14:45:00,67.8,1.4,29.80,NW,306,6.0,10.1,7,0.00,,,0.00,meteobridge,2013-03-18 20:45:00,
2013-03-18 14:50:00,68.2,1.8,29.80,WNW,300,0.9,8.9,7,0.00,,,0.00,meteobridge,2013-03-18 20:50:00,
2013-03-18 14:55:00,68.5,1.9,29.80,SSW,203,4.0,6.9,7,0.00,,,0.00,meteobridge,2013-03-18 20:55:00,
2013-03-18 15:00:00,68.4,1.8,29.80,NW,326,6.9,13.0,7,0.00,,,0.00,meteobridge,2013-03-18 21:00:00,
2013-03-18 15:05:00,68.2,1.8,29.79,NW,304,2.9,11.0,7,0.00,,,0.00,meteobridge,2013-03-18 21:05:00,
2013-03-18 15:10:00,68.7,2.1,29.80,NW,321,0.0,6.9,7,0.00,,,0.00,meteobridge,2013-03-18 21:10:00,
2013-03-18 15:15:00,68.7,2.1,29.80,North,0,13.0,14.1,7,0.00,,,0.00,meteobridge,2013-03-18 21:15:00,
2013-03-18 15:20:00,68.4,1.8,29.79,NW,317,6.0,14.1,7,0.00,,,0.00,meteobridge,2013-03-18 21:20:00,
2013-03-18 15:25:00,68.4,1.8,29.79,West,274,2.9,10.1,7,0.00,,,0.00,meteobridge,2013-03-18 21:25:00,
2013-03-18 15:30:00,68.2,1.8,29.79,North,5,2.0,8.9,7,0.00,,,0.00,meteobridge,2013-03-18 21:30:00,
2013-03-18 15:35:00,68.0,1.6,29.79,NW,310,10.1,10.1,7,0.00,,,0.00,meteobridge,2013-03-18 21:35:00,
2013-03-18 15:40:00,68.2,1.8,29.79,NNW,335,4.9,6.9,7,0.00,,,0.00,meteobridge,2013-03-18 21:40:00,
2013-03-18 15:45:00,67.8,1.4,29.79,NW,323,4.0,8.9,7,0.00,,,0.00,meteobridge,2013-03-18 21:45:00,
2013-03-18 15:50:00,68.4,1.8,29.78,North,355,6.9,8.1,7,0.00,,,0.00,meteobridge,2013-03-18 21:50:00,
2013-03-18 15:55:00,69.1,-0.9,29.78,NW,311,2.9,6.0,6,0.00,,,0.00,meteobridge,2013-03-18 21:55:00,
2013-03-18 16:00:00,68.7,-1.1,29.78,NNW,331,8.1,15.0,6,0.00,,,0.00,meteobridge,2013-03-18 22:00:00,
2013-03-18 16:05:00,68.5,-1.3,29.78,North,11,6.0,12.1,6,0.00,,,0.00,meteobridge,2013-03-18 22:05:00,
2013-03-18 16:10:00,68.0,1.6,29.78,West,260,2.9,4.9,7,0.00,,,0.00,meteobridge,2013-03-18 22:10:00,
2013-03-18 16:15:00,68.5,1.9,29.78,North,355,2.9,6.9,7,0.00,,,0.00,meteobridge,2013-03-18 22:15:00,
2013-03-18 16:20:00,68.4,-1.5,29.78,NNW,336,4.0,8.9,6,0.00,,,0.00,meteobridge,2013-03-18 22:20:00,
2013-03-18 16:25:00,68.5,1.9,29.78,NW,325,2.9,11.0,7,0.00,,,0.00,meteobridge,2013-03-18 22:25:00,
2013-03-18 16:30:00,68.5,-1.3,29.78,NW,307,2.0,6.9,6,0.00,,,0.00,meteobridge,2013-03-18 22:30:00,
2013-03-18 16:36:00,68.0,1.6,29.78,North,0,8.9,11.0,7,0.00,,,0.00,meteobridge,2013-03-18 22:36:00,
2013-03-18 16:41:00,68.4,1.8,29.78,NW,320,4.0,6.0,7,0.00,,,0.00,meteobridge,2013-03-18 22:41:00,
2013-03-18 16:46:00,68.0,1.6,29.78,WNW,290,4.0,8.9,7,0.00,,,0.00,meteobridge,2013-03-18 22:46:00,
2013-03-18 16:51:00,67.6,1.4,29.78,NW,319,4.0,8.9,7,0.00,,,0.00,meteobridge,2013-03-18 22:51:00,
2013-03-18 16:56:00,67.5,1.2,29.79,North,0,6.0,11.0,7,0.00,,,0.00,meteobridge,2013-03-18 22:56:00,
2013-03-18 17:01:00,68.0,1.6,29.79,NW,321,2.9,17.9,7,0.00,,,0.00,meteobridge,2013-03-18 23:01:00,
2013-03-18 17:06:00,67.5,1.2,29.79,North,5,8.1,11.0,7,0.00,,,0.00,meteobridge,2013-03-18 23:06:00,
2013-03-18 17:11:00,66.9,3.7,29.79,NNW,340,12.1,13.0,8,0.00,,,0.00,meteobridge,2013-03-18 23:11:00,
2013-03-18 17:16:00,66.6,3.4,29.79,North,5,4.9,12.1,8,0.00,,,0.00,meteobridge,2013-03-18 23:16:00,
2013-03-18 17:21:00,66.9,3.7,29.79,NW,324,2.0,8.1,8,0.00,,,0.00,meteobridge,2013-03-18 23:21:00,
2013-03-18 17:26:00,66.9,0.9,29.79,NNW,329,4.0,21.9,7,0.00,,,0.00,meteobridge,2013-03-18 23:26:00,
2013-03-18 17:31:00,66.6,3.4,29.79,NW,317,8.1,10.1,8,0.00,,,0.00,meteobridge,2013-03-18 23:31:00,
2013-03-18 17:36:00,66.6,3.4,29.80,NW,309,4.9,6.0,8,0.00,,,0.00,meteobridge,2013-03-18 23:36:00,
2013-03-18 17:41:00,66.2,3.2,29.80,NW,317,2.9,8.1,8,0.00,,,0.00,meteobridge,2013-03-18 23:41:00,
2013-03-18 17:46:00,65.8,2.8,29.80,NNW,331,6.0,8.9,8,0.00,,,0.00,meteobridge,2013-03-18 23:46:00,
2013-03-18 17:51:00,65.5,2.7,29.80,NW,326,4.9,11.0,8,0.00,,,0.00,meteobridge,2013-03-18 23:51:00,
2013-03-18 17:56:00,65.5,2.7,29.80,NNE,17,14.1,14.1,8,0.00,,,0.00,meteobridge,2013-03-18 23:56:00,
2013-03-18 18:01:00,65.1,2.3,29.80,NW,319,4.9,8.1,8,0.00,,,0.00,meteobridge,2013-03-19 00:01:00,
2013-03-18 18:06:00,64.8,2.1,29.80,NNW,330,4.9,14.1,8,0.00,,,0.00,meteobridge,2013-03-19 00:06:00,
2013-03-18 18:11:00,64.6,1.9,29.80,NNW,327,4.9,12.1,8,0.00,,,0.00,meteobridge,2013-03-19 00:11:00,
2013-03-18 18:16:00,64.6,4.5,29.80,NNW,347,6.0,6.0,9,0.00,,,0.00,meteobridge,2013-03-19 00:16:00,
2013-03-18 18:21:00,64.2,4.1,29.80,NW,321,4.0,10.1,9,0.00,,,0.00,meteobridge,2013-03-19 00:21:00,
2013-03-18 18:26:00,64.0,4.1,29.80,NW,320,6.9,13.0,9,0.00,,,0.00,meteobridge,2013-03-19 00:26:00,
2013-03-18 18:31:00,63.9,3.9,29.81,WNW,286,4.9,8.1,9,0.00,,,0.00,meteobridge,2013-03-19 00:31:00,
2013-03-18 18:36:00,63.3,3.6,29.81,NNW,331,2.9,14.1,9,0.00,,,0.00,meteobridge,2013-03-19 00:36:00,
2013-03-18 18:41:00,63.1,3.4,29.82,NNE,13,8.9,8.9,9,0.00,,,0.00,meteobridge,2013-03-19 00:41:00,
2013-03-18 18:46:00,63.0,3.2,29.82,NW,315,4.0,8.9,9,0.00,,,0.00,meteobridge,2013-03-19 00:46:00,
2013-03-18 18:52:00,62.4,2.8,29.82,NW,319,2.9,10.1,9,0.00,,,0.00,meteobridge,2013-03-19 00:52:00,
2013-03-18 18:57:00,62.1,2.5,29.82,NNW,335,4.0,6.9,9,0.00,,,0.00,meteobridge,2013-03-19 00:57:00,
2013-03-18 19:02:00,61.9,2.5,29.82,NNE,19,4.9,6.9,9,0.00,,,0.00,meteobridge,2013-03-19 01:02:00,
2013-03-18 19:07:00,61.5,2.1,29.82,WNW,296,2.0,10.1,9,0.00,,,0.00,meteobridge,2013-03-19 01:07:00,
2013-03-18 19:12:00,61.2,4.1,29.82,North,349,2.9,8.1,10,0.00,,,0.00,meteobridge,2013-03-19 01:12:00,
2013-03-18 19:17:00,61.0,3.9,29.82,NNW,328,2.0,4.9,10,0.00,,,0.00,meteobridge,2013-03-19 01:17:00,
2013-03-18 19:22:00,60.8,3.9,29.82,NNW,332,2.9,11.0,10,0.00,,,0.00,meteobridge,2013-03-19 01:22:00,
2013-03-18 19:27:00,60.6,3.7,29.82,NNW,334,4.9,10.1,10,0.00,,,0.00,meteobridge,2013-03-19 01:27:00,
2013-03-18 19:32:00,60.4,3.6,29.82,North,0,4.0,6.0,10,0.00,,,0.00,meteobridge,2013-03-19 01:32:00,
2013-03-18 19:37:00,60.1,3.4,29.83,NNW,345,2.0,2.9,10,0.00,,,0.00,meteobridge,2013-03-19 01:37:00,
2013-03-18 19:42:00,59.9,3.2,29.83,NW,316,4.0,6.9,10,0.00,,,0.00,meteobridge,2013-03-19 01:42:00,
2013-03-18 19:47:00,59.7,3.0,29.83,NNW,344,2.0,8.1,10,0.00,,,0.00,meteobridge,2013-03-19 01:47:00,
2013-03-18 19:52:00,59.5,5.0,29.83,North,5,2.0,2.9,11,0.00,,,0.00,meteobridge,2013-03-19 01:52:00,
2013-03-18 19:57:00,59.4,4.8,29.84,North,351,4.0,6.9,11,0.00,,,0.00,meteobridge,2013-03-19 01:57:00,
2013-03-18 20:02:00,59.0,4.5,29.84,NNW,330,2.0,8.1,11,0.00,,,0.00,meteobridge,2013-03-19 02:02:00,
2013-03-18 20:07:00,58.8,4.5,29.85,NNW,346,0.9,2.9,11,0.00,,,0.00,meteobridge,2013-03-19 02:07:00,
2013-03-18 20:12:00,58.5,4.1,29.85,NW,324,2.0,2.9,11,0.00,,,0.00,meteobridge,2013-03-19 02:12:00,
2013-03-18 20:18:00,58.3,3.9,29.85,NW,313,0.0,2.9,11,0.00,,,0.00,meteobridge,2013-03-19 02:18:00,
2013-03-18 20:23:00,57.9,3.7,29.85,NW,317,0.0,2.0,11,0.00,,,0.00,meteobridge,2013-03-19 02:23:00,
2013-03-18 20:28:00,57.7,3.6,29.85,NNW,336,0.9,4.9,11,0.00,,,0.00,meteobridge,2013-03-19 02:28:00,
2013-03-18 20:33:00,57.6,3.4,29.86,NNW,327,2.0,6.0,11,0.00,,,0.00,meteobridge,2013-03-19 02:33:00,
2013-03-18 20:38:00,57.6,3.4,29.86,WNW,303,0.0,2.0,11,0.00,,,0.00,meteobridge,2013-03-19 02:38:00,
2013-03-18 20:43:00,57.2,3.2,29.86,NW,313,2.0,4.0,11,0.00,,,0.00,meteobridge,2013-03-19 02:43:00,
2013-03-18 20:49:00,57.0,4.8,29.87,NW,315,0.0,4.9,12,0.00,,,0.00,meteobridge,2013-03-19 02:49:00,
2013-03-18 20:54:00,56.5,4.5,29.87,NW,315,0.9,0.9,12,0.00,,,0.00,meteobridge,2013-03-19 02:54:00,
2013-03-18 20:59:00,55.9,4.1,29.87,WNW,300,0.9,2.0,12,0.00,,,0.00,meteobridge,2013-03-19 02:59:00,
2013-03-18 21:04:00,55.4,5.4,29.87,WNW,300,0.0,0.0,13,0.00,,,0.00,meteobridge,2013-03-19 03:04:00,
2013-03-18 21:09:00,55.2,5.2,29.87,WNW,300,0.0,0.0,13,0.00,,,0.00,meteobridge,2013-03-19 03:09:00,
2013-03-18 21:14:00,54.3,4.5,29.87,WNW,300,0.0,0.9,13,0.00,,,0.00,meteobridge,2013-03-19 03:14:00,
2013-03-18 21:19:00,54.7,4.8,29.87,NW,311,0.9,2.9,13,0.00,,,0.00,meteobridge,2013-03-19 03:19:00,
2013-03-18 21:24:00,54.9,5.0,29.88,NW,311,0.0,2.0,13,0.00,,,0.00,meteobridge,2013-03-19 03:24:00,
2013-03-18 21:29:00,54.9,5.0,29.88,NW,311,0.9,2.0,13,0.00,,,0.00,meteobridge,2013-03-19 03:29:00,
2013-03-18 21:34:00,54.9,5.0,29.88,NW,311,0.9,0.9,13,0.00,,,0.00,meteobridge,2013-03-19 03:34:00,
2013-03-18 21:39:00,54.5,4.6,29.88,NW,311,0.0,0.0,13,0.00,,,0.00,meteobridge,2013-03-19 03:39:00,
2013-03-18 21:45:00,54.0,4.3,29.88,NW,311,0.0,0.9,13,0.00,,,0.00,meteobridge,2013-03-19 03:45:00,
2013-03-18 21:50:00,53.4,3.7,29.88,NW,311,0.9,2.0,13,0.00,,,0.00,meteobridge,2013-03-19 03:50:00,
2013-03-18 21:55:00,53.2,5.2,29.88,NW,324,0.0,0.0,14,0.00,,,0.00,meteobridge,2013-03-19 03:55:00,
2013-03-18 22:00:00,52.9,5.0,29.88,NNW,346,0.0,2.0,14,0.00,,,0.00,meteobridge,2013-03-19 04:00:00,
2013-03-18 22:01:00,52.9,5.0,29.88,North,355,0.9,2.9,14,0.00,,,0.00,meteobridge,2013-03-19 04:01:00,
2013-03-18 22:06:00,52.9,5.0,29.89,North,355,0.0,0.0,14,0.00,,,0.00,meteobridge,2013-03-19 04:06:00,
2013-03-18 22:11:00,52.5,6.3,29.89,North,355,0.0,0.0,15,0.00,,,0.00,meteobridge,2013-03-19 04:11:00,
2013-03-18 22:16:00,51.8,5.5,29.89,North,355,0.0,0.0,15,0.00,,,0.00,meteobridge,2013-03-19 04:16:00,
2013-03-18 22:21:00,51.3,6.6,29.89,North,355,0.0,0.0,16,0.00,,,0.00,meteobridge,2013-03-19 04:21:00,
2013-03-18 22:27:00,50.5,7.3,29.90,North,355,0.0,0.0,17,0.00,,,0.00,meteobridge,2013-03-19 04:27:00,
2013-03-18 22:32:00,50.2,7.0,29.90,North,355,0.0,0.0,17,0.00,,,0.00,meteobridge,2013-03-19 04:32:00,
2013-03-18 22:37:00,49.5,7.7,29.90,North,355,0.0,0.0,18,0.00,,,0.00,meteobridge,2013-03-19 04:37:00,
2013-03-18 22:42:00,48.9,7.2,29.90,North,355,0.0,0.0,18,0.00,,,0.00,meteobridge,2013-03-19 04:42:00,
2013-03-18 22:47:00,48.7,7.2,29.90,North,355,0.0,0.0,18,0.00,,,0.00,meteobridge,2013-03-19 04:47:00,
2013-03-18 22:52:00,48.4,6.8,29.90,North,355,0.0,0.0,18,0.00,,,0.00,meteobridge,2013-03-19 04:52:00,
2013-03-18 22:58:00,48.7,7.2,29.89,North,355,0.0,0.9,18,0.00,,,0.00,meteobridge,2013-03-19 04:58:00,
2013-03-18 23:03:00,49.3,6.3,29.89,North,355,0.0,0.9,17,0.00,,,0.00,meteobridge,2013-03-19 05:03:00,
2013-03-18 23:08:00,49.5,5.2,29.89,North,355,0.0,0.9,16,0.00,,,0.00,meteobridge,2013-03-19 05:08:00,
2013-03-18 23:13:00,49.3,7.5,29.89,North,355,0.9,2.9,18,0.00,,,0.00,meteobridge,2013-03-19 05:13:00,
2013-03-18 23:18:00,49.5,6.4,29.89,North,355,0.9,2.0,17,0.00,,,0.00,meteobridge,2013-03-19 05:18:00,
2013-03-18 23:23:00,49.8,5.4,29.89,North,351,0.9,2.9,16,0.00,,,0.00,meteobridge,2013-03-19 05:23:00,
2013-03-18 23:29:00,49.6,5.2,29.89,North,351,0.0,0.0,16,0.00,,,0.00,meteobridge,2013-03-19 05:29:00,
2013-03-18 23:34:00,49.3,5.0,29.89,North,351,0.0,0.0,16,0.00,,,0.00,meteobridge,2013-03-19 05:34:00,
2013-03-18 23:39:00,48.7,5.9,29.89,North,351,0.0,0.0,17,0.00,,,0.00,meteobridge,2013-03-19 05:39:00,
2013-03-18 23:44:00,48.6,7.0,29.89,North,351,0.0,0.0,18,0.00,,,0.00,meteobridge,2013-03-19 05:44:00,
2013-03-18 23:50:00,47.7,7.3,29.90,North,351,0.0,0.9,19,0.00,,,0.00,meteobridge,2013-03-19 05:50:00,
2013-03-18 23:55:00,47.1,7.0,29.90,North,351,0.0,0.0,19,0.00,,,0.00,meteobridge,2013-03-19 05:55:00,